Погода Казанская

Погода Казанская : погода сейчас, прогноз погоды и архив. Всё, что Вы хотите узнать о погоде Казанская!

Хотите узнать прогноз погоды Казанская? Тогда Вам сюда: Погода Казанская

Поиск расширенной информации на нашем сайте:

Другие новости

Новости СМИ2

Главная страница сайта

Новости сайта

02.10.2013

Напоминаем, что на нашем новом сайте вы можете получить высокодетализированные прогнозы погоды по пунктам России, СНГ и мира (включающие важные для авиации метеовеличины, такие как направление и скорость ветра, видимость, явления погоды, количество и форма облачности, нижняя и верхняя граница облачности), а также ознакомиться с разнообразными материалами по авиационной метеорологии и подборкой полезных ссылок на эту тему.

Сайт Метеоцентр.Азия посвящён разработке технологий оптимизации авиаметеорологического обслуживания, включая проектирование и перспективное создание нескольких автоматизированных авиаметеорологических систем:
- система выпуска высокодетальных прогностических карт явлений погоды для нижнего воздушного пространства по России и ближнему зарубежью;
- система верификации прогнозов TAF (выпускаемых синоптиками официальных АМСГ РФ и ближнего зарубежья) и AUTOTAF (выпускаемых сайтом Метеоцентр.Азия) - выявление ошибок, онлайн-сопоставление с фактической погодой METAR, автоматическое внесение коррективов в прогнозы при резком отклонении фактической погоды от прогноза, подсчёт оправдываемости прогнозов по элементам и в целом;
- система обработки, анализа и отображения авиаметеорологической информации для применения провайдерами метеорологической информации.


Погода Казанская - сегодня

Время (UTC), дата Ветер
(°,м/с) 
Видим.   Явления Облачность Т
(°С)
Тd
(°С)
f(%) Тe
(°С)
Pmin
(гПа)
dP
(гПа)
Po
(мм)
O2
(г/м3)
Тmin Tmax R s Состояние
почвы
18 22.05.17 тихо ()   20000 м    1/0 верхняя 
[Ci fib]
+8.3 +6.9 91 +8  1011.5  1.6  752  293           
21 22.05.17 300 (СЗ) 20000 м    ясно 
+7.9 +5.7 86 +9  1012.2  0.6  753  294           
00 23.05.17 300 (СЗ) 20000 м    10/0 верхняя 
[Cs]
+5.9 +4.6 91 +6  1013.4  0.6  754  296           
03 23.05.17 300 (СЗ) 20000 м    3/0 верхняя 
[Ci fib]
+6.5 +4.2 85 +6  1014.7  1.2  754  296  +5        влажная 
06 23.05.17 350 (С) 20000 м    3/0 верхняя 
[Ci fib]
+14 +3.6 49 +15  1016.1  1.7  756  289           
09 23.05.17 350 (С) 20000 м    8/5 1000 м средняя, верхняя 
[Cu med, cong|Ac cuf|Cc]
+17 +0.5 33 +18  1016.4  0.3  756  287           
12 23.05.17 300 (СЗ) 20000 м    8/5 1000 м средняя, верхняя 
[Cu med, cong|Ac cuf|Ci fib]
+18.5 +1.4 32 +19  1016.2  0.1  756  285           
15 23.05.17 270 (З) 20000 м    4/0 средняя, верхняя 
[Ac lent|Ci fib]
+19.2 +2.8 34 +21  1015.6  -0.5  755  284    +19.9       
18 23.05.17 тихо ()   20000 м    ясно 
+12.6 +7 69 +13  1017  1.1  756  290           
21 23.05.17 220 (ЮЗ) 20000 м    ясно 
+12.6 +3.9 55 +14  1017.6  0.6  757  291           
00 24.05.17 080 (В) 20000 м    10/0 верхняя 
[Cs]
+11.5 +3.9 60 +13  1018.1  0.5  757  292           
03 24.05.17 120 (ЮВ) н/о    н/о 
+11 +5.4 68 +12  1018.7  0.7  758  293  +10.3         
06 24.05.17 тихо ()   20000 м    9/4 600 м кучево-дожд., средняя 
[Cb cap|Ac trans]
+15.8 +7.2 57 +16  1018.7  0.1  758  287           
09 24.05.17 270 (З) 20000 м    10/0 средняя, верхняя 
[Ac trans|Cs]
+22.8 +4.7 31 +23  1017.9  -0.6  757  281           
12 24.05.17 260 (З) 20000 м    8/3 1000 м средняя 
[Cu med, cong|Ac trans]
+23.3 +5 30 +23  1017.2  -0.6  757  280           
15 24.05.17 240 (ЮЗ) 20000 м    4/0 средняя 
[Ac trans]
+23.2 +5.6 32 +23  1016.5  -0.8  756  280    +24.4       
18 24.05.17 230 (ЮЗ) 20000 м    ясно 
+17.6 +7.9 53 +18  1017.7  1.1  757  285           
21 24.05.17 240 (ЮЗ) 20000 м    ясно 
+17.3 +6.3 48 +18  1017.9  0.2  757  286           
00 25.05.17 360 (С) 20000 м    9/0 средняя 
[Ac trans]
+14.2 +7.4 64 +15  1018.2  0.2  757  289           
03 25.05.17 160 (Ю) 20000 м    9/3 600 м кучево-дожд., средняя 
[Cb cap|Ac trans]
+13.8 +7.2 64 +15  1018.3  757  289  +12.2        сухая 
06 25.05.17 230 (ЮЗ) 20000 м    9/0 средняя 
[Ac trans]
+16.7 +9.2 61 +18  1018.8  0.6  758  286           
09 25.05.17 240 (ЮЗ) 20000 м    9/6 600 м кучево-дожд., средняя 
[Cb cap|Ac trans]
+17.7 +9.2 57 +18  1018.5  -0.2  758  285           
12 25.05.17 200 (Ю) 20000 м    8/0 средняя, верхняя 
[Ac trans|Ci fib]
+22.1 +9.4 44 +22  1017.5  -0.9  757  281           
15 25.05.17 220 (ЮЗ) 20000 м    3/0 верхняя 
[Ci fib]
+21.3 +8.4 44 +21  1016.8  -0.7  756  281    +22.7       
18 25.05.17 220 (ЮЗ) 20000 м    3/0 средняя 
[Ac trans]
+16.9 +8.5 58 +18  1017.3  0.4  757  286           
Время (UTC), дата Ветер
(°,м/с) 
Видим.   Явления Облачность Т
(°С)
Тd
(°С)
f(%) Тe
(°С)
Pmin
(гПа)
dP
(гПа)
Po
(мм)
O2
(г/м3)
Тmin Tmax R s Состояние
почвы

Для получения пояснительной информации подведите курсор к названию столбца.

ПОГОДА Казанская - архив

Всё, что Вы хотите узнать о погоде Казанская - удобно и подробно!

Выберите нужную дату (начиная с 1 января 2015* года) и нажмите кнопку "Найти".
Будут отображены архивные сводки погоды по пункту Казанская, начиная с указанной даты.


Отображать данные в формате CSV (для использования в таблицах Excel)


Внимание! Наш архив погоды предназначен исключительно для личного некоммерческого использования в познавательных целях. Если Вам необходимы официальные справки о состоянии погоды (для производственных, юридических, коммерческих и т.п. целей), обращайтесь в органы Росгидромета.

*Примечание: данная дата относится к архиву по метеостанциям СССР (Россия, СНГ, Балтия).
Архив по метеостанциям Зарубежной Европы и Азии (кроме Китая) хранится 10 дней, по другим регионам земного шара (Китай, Африка, Америка, Австралия, Океания) - 1 день.

Казанская - район местоположения метеостанции


Название, широта, долгота, высота метеостанции:
Казанская 49.8°ш. 41.2°д. 72 м над ур. моря [Российская Федерация]

Дополнительная информация

В oтличие oт бoльшинства пoгoдных сайтoв мы публикуем пoдрoбную метеoинфoрмацию в детальнoм прoфессиoнальнoм фoрмате.

Характеристики температуры и влажнoсти вoздуха измеряются на высoте 2 м в тени вдали oт зданий и деревьев.
Скoрoсть ветра измеряется на высoте 10 м (на урoвне рoста челoвека скoрoсть ветра ниже в 1.5-2 раза). Если метеoстанция нахoдится в гoрoде или в лесу, тo скoрoсть ветра занижена на 2-4 м/с пo сравнению с oткрытым местoм. Скoрoсть ветра над акватoриями крупных рек и oзёр, а также на вершинах хoлмoв на 2-5 м/с выше, чем в oбычных услoвиях.
Атмoсфернoе давление в разных тoчках местнoсти мoжет значительнo oтличаться oт давления на метеoстанции, в зависимoсти oт услoвий рельефа (при пoдъёме на 10 м давление пoнижается примернo на 1 мм рт.ст.).